{"data":{"norad_id":52333,"intl_designator":"2022-045C","name":"STARLINK-3847","alt_names":[],"object_type":"PAYLOAD","status":"ACTIVE","operator":null,"country":"US","launch_date":"2022-04-29","launch_site_code":"AFETR","launch_vehicle":null,"mission":null,"orbit_class":"UNKNOWN","rcs_meters":null,"size_class":null,"mass_kg":null,"dimensions":null,"purposes":["comms"],"wikipedia_slug":null,"has_3d_model":false,"image_url":null,"decayed_at":null,"tle_current":{"epoch":"2026-05-25T05:28:54.374304Z","epoch_age_seconds":55282,"freshness":"FRESH","line1":"1 52333U 22045C   26145.22840711 -.00000234  00000+0  33673-5 0  9998","line2":"2 52333  53.2159 225.5251 0001184  85.4483 274.6644 15.08839314227186","mean_motion":15.08839314,"eccentricity":0.0001184,"inclination_deg":53.2159,"raan_deg":225.5251,"arg_perigee_deg":85.4483,"mean_anomaly_deg":274.6644,"bstar":3.3673e-6,"rev_number":22718,"period_min":95.437598068842,"perigee_km":538.92640850614,"apogee_km":540.56456307878,"semimajor_km":6917.8824857925,"source":"CELESTRAK","updated_at":"2026-05-25T13:38:17.112712Z"}}}